This is the latest recevied weather packets stored in our database for station/object OM4MO-10. If no packets are shown the sender has not sent any weather packets the latest 10 day(s).
| Time | Temp. | Humidity | Pressure | Rain* | Wind** | Luminosity | Snow |
|---|---|---|---|---|---|---|---|
| 1788664428 | 8.89° C | 78% | 1025 hPa | - | - | - | - |
| 1788663528 | 8.89° C | 78% | 1024.8 hPa | - | - | - | - |
| 1788662628 | 8.89° C | 78% | 1024.7 hPa | - | - | - | - |
| 1788661727 | 8.89° C | 78% | 1024.6 hPa | - | - | - | - |
| 1788660827 | 9.44° C | 78% | 1024.7 hPa | - | - | - | - |
| 1788659927 | 9.44° C | 78% | 1024.4 hPa | - | - | - | - |
| 1788659027 | 10° C | 78% | 1024.4 hPa | - | - | - | - |
| 1788658127 | 10° C | 78% | 1024.2 hPa | - | - | - | - |
| 1788657227 | 10° C | 78% | 1024.2 hPa | - | - | - | - |
| 1788656327 | 10.56° C | 78% | 1024.1 hPa | - | - | - | - |
| 1788655427 | 11.11° C | 78% | 1024 hPa | - | - | - | - |
| 1788654554 | 11.11° C | 78% | 1023.8 hPa | - | - | - | - |
| 1788653626 | 12.22° C | 78% | 1023.8 hPa | - | - | - | - |
| 1788652726 | 12.78° C | 79% | 1023.8 hPa | - | - | - | - |
| 1788651826 | 12.78° C | 79% | 1023.7 hPa | - | - | - | - |
| 1788650926 | 12.22° C | 79% | 1023.7 hPa | - | - | - | - |
| 1788650026 | 12.22° C | 78% | 1023.6 hPa | - | - | - | - |
| 1788649126 | 12.78° C | 79% | 1023.7 hPa | - | - | - | - |
| 1788648226 | 12.78° C | 79% | 1023.7 hPa | - | - | - | - |
| 1788647325 | 12.78° C | 79% | 1023.7 hPa | - | - | - | - |
| 1788646425 | 12.78° C | 79% | 1023.7 hPa | - | - | - | - |
| 1788645525 | 12.78° C | 79% | 1023.7 hPa | - | - | - | - |
| 1788644625 | 12.78° C | 79% | 1023.5 hPa | - | - | - | - |
| 1788643725 | 12.78° C | 79% | 1023.4 hPa | - | - | - | - |
| 1788642825 | 12.22° C | 78% | 1023.2 hPa | - | - | - | - |
* Rain since midnight (hover to see other rain measurements)
** Current wind speed in m/s (hover to see current wind gust speed)